User: anonymous   Login
Location: Unspecified
(0.0000°N, 0.0000°E)
Time: 17:22:20
(UTC+00:00)
Language:

AEROCUBE 6A - Orbit

View from above orbital plane
View from above orbital plane
View from above satellite
View from above satellite

Ground track
Ground track

The orbit data is extracted from the following two-line orbital elements,

1 40045U 14033AM  21336.82521678  .00000707  00000-0  10697-3 0  9998
2 40045  97.6768 179.6984 0058605  62.8063 297.9104 14.75966445400772
Epoch (UTC): 02 December 2021 19:48:18
Eccentricity: 0.0058605
inclination: 97.6768°
perigee height: 601 km
apogee height: 683 km
right ascension of ascending node: 179.6984°
argument of perigee: 62.8063°
revolutions per day: 14.75966445
mean anomaly at epoch: 297.9104°
orbit number at epoch: 40077

The dashed part of the orbit path shows where the satellite is in the earth's shadow,  

DLR